Location: Ku?niki
(51.4449°N, 17.8974°E)
Time: 11:34:26
(UTC+00:00)

Cosmos 1707 - Pass Details

Date: 18 September 2020
Orbit: 515 x 530 km, 82.5° (Epoch: 30 October)

Event Time Altitude Azimuth Distance (km) Brightness Sun altitude
Rises 17:39:11 0° 354° (N) 2,658 6.6 -7.6°
Reaches altitude 10° 17:41:24 10° 0° (N) 1,763 5.6 -8.0°
Maximum altitude 17:45:08 45° 75° (ENE) 717 3.0 -8.5°
Drops below altitude 10° 17:48:49 10° 149° (SSE) 1,743 5.0 -9.1°
Enters shadow 17:50:38 - 155° (SSE) 2,477 5.8 -9.4°
